Farmville, Virginia, United States (23901)
Lat: 37.30N, Lon: 78.39W
Wx Zone: VAZ060
Local Info
Past Weather Observations for Today

NOTE: This archive is for the closest National Weather Service station to Farmville. Information may differ from the station used for current weather conditions.

Click here for Long-term Archive

Time Weather Temperature Dewpoint Humidity Pressure Winds Precip Visibility
21:54
Clear
72°F / 22°C 70°F / 21°C 94% 30.15 in
(1021 mb)
Calm - 10SM
20:54
Clear
73°F / 23°C 70°F / 21°C 89% 30.15 in
(1021 mb)
Calm - 10SM
19:54
Clear
79°F / 26°C 70°F / 21°C 74% 30.12 in
(1020 mb)
S 4.6 mph
(S 7 kph)
- 10SM
18:54
Clear
81°F / 27°C 70°F / 21°C 70% 30.12 in
(1020 mb)
SE 4.6 mph
(SE 7 kph)
- 10SM
17:54
Clear
82°F / 28°C 70°F / 21°C 66% 30.12 in
(1020 mb)
S 8.1 mph
(S 13 kph)
- 10SM
16:54
Partly Cloudy
86°F / 30°C 68°F / 20°C 55% 30.12 in
(1020 mb)
S 8.1 mph
(S 13 kph)
- 10SM
15:54
Clear
84°F / 29°C 66°F / 19°C 55% 30.12 in
(1020 mb)
SSE 3.5 mph
(SSE 6 kph)
- 10SM
14:54
Partly Cloudy
82°F / 28°C 66°F / 19°C 58% 30.15 in
(1021 mb)
SE 3.5 mph
(SE 6 kph)
- 10SM
13:54
Partly Cloudy
84°F / 29°C 66°F / 19°C 55% 30.15 in
(1021 mb)
S 9.2 mph
(S 15 kph)
- 10SM
12:54
Mostly Cloudy
82°F / 28°C 68°F / 20°C 62% 30.18 in
(1022 mb)
S 8.1 mph
(S 13 kph)
- 10SM
11:54
Mostly Cloudy
82°F / 28°C 66°F / 19°C 58% 30.18 in
(1022 mb)
S 5.8 mph
(S 9 kph)
- 10SM
11:47
Mostly Cloudy
82°F / 28°C 66°F / 19°C 58% 30.18 in
(1022 mb)
Variable 3.5 mph
(Variable 6 kph)
- 10SM
11:04
Overcast
81°F / 27°C 70°F / 21°C 70% 30.21 in
(1023 mb)
Calm - 10SM
10:54
Overcast
82°F / 28°C 66°F / 19°C 58% 30.21 in
(1023 mb)
Calm - 10SM
09:54
Mostly Cloudy
79°F / 26°C 68°F / 20°C 70% 30.21 in
(1023 mb)
Calm - 10SM
08:54
Partly Cloudy
77°F / 25°C 66°F / 19°C 69% 30.21 in
(1023 mb)
S 4.6 mph
(S 7 kph)
- 10SM
07:54
Clear
73°F / 23°C 68°F / 20°C 83% 30.24 in
(1024 mb)
S 4.6 mph
(S 7 kph)
- 10SM
06:54
Mostly Cloudy
72°F / 22°C 70°F / 21°C 94% 30.21 in
(1023 mb)
Calm - 9SM
05:54
Overcast
72°F / 22°C 70°F / 21°C 94% 30.21 in
(1023 mb)
Calm - 7SM
05:51
Overcast
Fog And Mist
72°F / 22°C 70°F / 21°C 94% 30.21 in
(1023 mb)
Calm - 6SM
04:54
Overcast
Fog And Mist
70°F / 21°C 70°F / 21°C 100% 30.18 in
(1022 mb)
Calm - 6SM
04:33
Overcast
Fog And Mist
70°F / 21°C 70°F / 21°C 100% 30.18 in
(1022 mb)
Calm - 6SM
03:54
Overcast
72°F / 22°C 70°F / 21°C 94% 30.18 in
(1022 mb)
Calm - 7SM
03:12
Overcast
Fog And Mist
72°F / 22°C 70°F / 21°C 94% 30.18 in
(1022 mb)
Calm - 6SM
02:54
Overcast
Fog And Mist
72°F / 22°C 70°F / 21°C 94% 30.18 in
(1022 mb)
SSE 3.5 mph
(SSE 6 kph)
- 5SM
01:54
Overcast
72°F / 22°C 70°F / 21°C 94% 30.18 in
(1022 mb)
SSE 4.6 mph
(SSE 7 kph)
0.00 in
(0.00 mm)
7SM
00:54
Overcast
72°F / 22°C 70°F / 21°C 94% 30.21 in
(1023 mb)
SSE 4.6 mph
(SSE 7 kph)
- 9SM
00:28
Overcast
72°F / 22°C 70°F / 21°C 94% 30.21 in
(1023 mb)
Calm - 10SM
Time Weather Temperature Dewpoint Humidity Pressure Winds Precip Visibility


Weather for websites

WeatherForYou.com, LLC is not responsible for any damages or problems caused by this service. Current weather conditions are obtained from the closest station including government and personal stations which may have varying degrees of accuracy. Weather forecasts are derived from the NOAA NDFD. Like all things, this site belongs to Jesus Christ... He just trusts me to maintain it. If you have any questions or comments email webmaster@weatherforyou.com

Copyright © 2014, WeatherForYou.com LLC. All rights reserved.